Penticton, British Columbia

11:02 PM PDT on September 25, 2016 (GMT -0700)
Penticton

Weather History for CYYF - January, 2014

Change the Weather History Date:

Friday, January 10, 2014

  Actual Average Record
Temperature  
Mean Temperature 34 °F -  
Max Temperature 41 °F 32 °F 51 °F (2006)
Min Temperature 30 °F 24 °F 8 °F (1998)
Degree Days  
Heating Degree Days 30    
Moisture  
Dew Point 31 °F    
Average Humidity 80    
Maximum Humidity 87    
Minimum Humidity 70    
Precipitation  
Precipitation 0.00 in - - ()
Sea Level Pressure  
Sea Level Pressure 29.80 in    
Wind  
Wind Speed 11 mph ()    
Max Wind Speed 30 mph    
Max Gust Speed 38 mph    
Visibility 14.9 miles    
Events Rain    
Averages and records for this station are not official NWS values.
T = Trace of Precipitation, MM = Missing Value Source: Averaged Metar Reports

Daily Weather History Graph

Daily Weather History Graph

Search for Another Location

Airport or City:

Trip Planner

Search our weather history database for the weather conditions in past years. The results will help you decide how hot, cold, wet, or windy it might be!

Date:

Astronomy

Jan. 10, 2014 Rise Set
Actual Time 7:51 AM PST 4:20 PM PST
Civil Twilight 7:15 AM PST 4:57 PM PST
Nautical Twilight 6:34 AM PST 5:37 PM PST
Astronomical Twilight 5:56 AM PST 6:16 PM PST
Moon 12:35 PM PST (1/10) 2:55 AM PST (1/10)
Length of Visible Light 9h 42m
Length of Day
8h 28m
Waxing Gibbous, 76% of the Moon is Illuminated
Jan 10
Waxing Gibbous
Jan 15
Full
Jan 23
Last Quarter
Jan 30
New
Feb 6
First Quarter

Hourly Weather History & Observations

Time (PST) Temp. Windchill Dew Point Humidity Pressure Visibility Wind Dir Wind Speed Gust Speed Precip Events Conditions
12:00 AM 35.6 °F 25.9 °F 30.2 °F 81% 29.69 in 15.0 mi South 16.1 mph 24.2 mph N/A   Mostly Cloudy
1:00 AM 35.6 °F 26.6 °F 30.2 °F 81% 29.70 in 15.0 mi SSE 13.8 mph 20.7 mph N/A   Overcast
2:00 AM 35.6 °F 25.2 °F 30.2 °F 81% 29.70 in 15.0 mi South 18.4 mph - N/A   Overcast
3:00 AM 35.6 °F 26.6 °F 32.0 °F 87% 29.72 in 15.0 mi South 13.8 mph - N/A   Overcast
4:00 AM 36 °F - 31 °F 75% 29.73 in 15 mi South 17.3 mph - -   Partly Cloudy
4:00 AM 37.4 °F 27.8 °F 30.2 °F 75% 29.72 in 15.0 mi South 17.3 mph - N/A   Mostly Cloudy
5:00 AM 35.6 °F 25.2 °F 30.2 °F 81% 29.74 in 15.0 mi South 18.4 mph 25.3 mph N/A   Mostly Cloudy
6:00 AM 35.6 °F 26.2 °F 30.2 °F 81% 29.77 in 15.0 mi South 15.0 mph 24.2 mph N/A   Mostly Cloudy
7:00 AM 35.6 °F 24.0 °F 30.2 °F 81% 29.78 in 15.0 mi South 23.0 mph - N/A   Mostly Cloudy
8:00 AM 35.6 °F 25.9 °F 30.2 °F 81% 29.81 in 15.0 mi South 16.1 mph 21.9 mph N/A   Overcast
9:00 AM 35.6 °F 26.2 °F 30.2 °F 81% 29.85 in 15.0 mi SSE 15.0 mph 23.0 mph N/A   Overcast
10:00 AM 35 °F - 30 °F 74% 29.87 in 15 mi SSE 15.0 mph - -   Overcast
10:00 AM 35.6 °F 26.2 °F 30.2 °F 81% 29.87 in 15.0 mi SSE 15.0 mph - N/A   Overcast
11:00 AM 35.6 °F 28.6 °F 30.2 °F 81% 29.90 in 15.0 mi South 9.2 mph - N/A   Overcast
12:00 PM 37.4 °F 34.9 °F 30.2 °F 75% 29.88 in 15.0 mi South 3.5 mph - N/A   Mostly Cloudy
1:00 PM 37.4 °F - 30.2 °F 75% 29.89 in 15.0 mi South 2.3 mph - N/A   Mostly Cloudy
2:00 PM 37.4 °F 34.9 °F 32.0 °F 81% 29.89 in 15.0 mi Variable 3.5 mph - N/A   Mostly Cloudy
3:00 PM 37.4 °F - 30.2 °F 75% 29.91 in 15.0 mi Calm Calm - N/A   Overcast
4:00 PM 36 °F - 31 °F 75% 29.93 in 15 mi South 4.6 mph - -   Scattered Clouds
4:00 PM 35.6 °F 30.7 °F 30.2 °F 81% 29.92 in 15.0 mi SSW 5.8 mph - N/A   Mostly Cloudy
5:00 PM 35.6 °F 31.7 °F 30.2 °F 81% 29.91 in 15.0 mi SW 4.6 mph - N/A   Mostly Cloudy
6:00 PM 35.6 °F - 32.0 °F 87% 29.89 in 15.0 mi SSE 2.3 mph - N/A   Overcast
7:00 PM 35.6 °F 31.7 °F 32.0 °F 87% 29.86 in 15.0 mi SW 4.6 mph - N/A   Overcast
8:00 PM 35.6 °F - 32.0 °F 87% 29.82 in 15.0 mi SSE 2.3 mph - N/A   Overcast
9:00 PM 35.6 °F 29.9 °F 32.0 °F 87% 29.77 in 15.0 mi SSW 6.9 mph - N/A   Overcast
10:00 PM 36 °F - 30 °F 73% 29.72 in 15 mi SE 9.2 mph - -   Overcast
10:00 PM 35.6 °F 28.0 °F 30.2 °F 81% 29.71 in 15.0 mi SE 10.4 mph - N/A   Overcast
11:00 PM 39.2 °F 30.8 °F 30.2 °F 70% 29.66 in 15.0 mi South 15.0 mph - N/A   Overcast
11:39 PM 41.0 °F 29.8 °F 32.0 °F 70% 29.61 in 12.0 mi SSW 29.9 mph 38.0 mph N/A Rain Light Rain Showers